Pratt, KS

5:23 AM CDT on April 26, 2017 (GMT -0500)
Pratt Industrial

Weather History for KPTT - March, 2013

Change the Weather History Date:

Sunday, March 24, 2013

  Actual Average (KP28) Record (KP28)
Temperature  
Mean Temperature 27 °F -  
Max Temperature 33 °F 59 °F 90 °F (1929)
Min Temperature 21 °F 36 °F 12 °F (1966)
Degree Days  
Heating Degree Days 38    
Moisture  
Dew Point 22 °F    
Average Humidity 78    
Maximum Humidity 100    
Minimum Humidity 60    
Precipitation  
Precipitation 0.00 in - - ()
Sea Level Pressure  
Sea Level Pressure 30.11 in    
Wind  
Wind Speed 23 mph (NNW)    
Max Wind Speed 32 mph    
Max Gust Speed 41 mph    
Visibility 8 miles    
Events Snow    
Averages and records for this station are not official NWS values.
T = Trace of Precipitation, MM = Missing Value Source: NWS Daily Summary

Daily Weather History Graph

Daily Weather History Graph

Search for Another Location

Airport or City:

Trip Planner

Search our weather history database for the weather conditions in past years. The results will help you decide how hot, cold, wet, or windy it might be!

Date:

Astronomy

Mar. 24, 2013 Rise Set
Actual Time 7:32 AM CDT 7:50 PM CDT
Civil Twilight 7:05 AM CDT 8:17 PM CDT
Nautical Twilight 6:35 AM CDT 8:47 PM CDT
Astronomical Twilight 6:03 AM CDT 9:19 PM CDT
Moon 5:22 PM CDT (3/24) 5:40 AM CDT (3/24)
Length of Visible Light 13h 11m
Length of Day
12h 18m
Waxing Gibbous, 92% of the Moon is Illuminated
Mar 24
Waxing Gibbous
Mar 27
Full
Apr 2
Last Quarter
Apr 10
New
Apr 18
First Quarter

Hourly Weather History & Observations

Time (CDT) Temp. Windchill Dew Point Humidity Pressure Visibility Wind Dir Wind Speed Gust Speed Precip Events Conditions
12:15 AM 28.4 °F 13.8 °F 28.4 °F 100% 29.99 in 1.2 mi North 25.3 mph 31.1 mph N/A Snow Light Snow
12:35 AM 28.4 °F 14.1 °F 28.4 °F 100% 29.98 in 1.8 mi North 24.2 mph 32.2 mph N/A Snow Light Snow
12:55 AM 28.4 °F 13.5 °F 28.4 °F 100% 29.99 in 2.0 mi North 26.5 mph 32.2 mph N/A Snow Light Snow
1:15 AM 28.4 °F 13.8 °F 28.4 °F 100% 30.00 in 2.5 mi North 25.3 mph 32.2 mph N/A Snow Light Snow
1:35 AM 28.4 °F 14.1 °F 28.4 °F 100% 30.00 in 1.8 mi North 24.2 mph 33.4 mph N/A Snow Light Snow
1:55 AM 28.4 °F 14.4 °F 28.4 °F 100% 30.01 in 1.5 mi North 23.0 mph 29.9 mph N/A Snow Light Snow
2:35 AM 26.6 °F 10.3 °F 26.6 °F 100% 30.02 in - North 29.9 mph - N/A   Unknown
2:55 AM 26.6 °F 11.4 °F 26.6 °F 100% 30.03 in - North 25.3 mph 31.1 mph N/A   Overcast
3:15 AM 26.6 °F 10.3 °F 24.8 °F 93% 30.03 in - North 29.9 mph 40.3 mph N/A   Overcast
3:35 AM 26.6 °F 9.8 °F 24.8 °F 93% 30.03 in - North 32.2 mph 41.4 mph N/A   Overcast
3:55 AM 26.6 °F 10.6 °F 24.8 °F 93% 30.03 in - NNW 28.8 mph 36.8 mph N/A   Overcast
4:15 AM 24.8 °F 7.6 °F 23.0 °F 93% 30.03 in - North 31.1 mph 40.3 mph N/A   Overcast
4:35 AM 24.8 °F 7.9 °F 23.0 °F 93% 30.04 in - NNW 29.9 mph 35.7 mph N/A   Overcast
4:55 AM 24.8 °F 7.6 °F 23.0 °F 93% 30.04 in - NNW 31.1 mph 35.7 mph N/A   Overcast
5:15 AM 23.0 °F 6.0 °F 23.0 °F 100% 30.04 in - NNW 27.6 mph 36.8 mph N/A   Overcast
5:35 AM 23.0 °F 5.7 °F 21.2 °F 93% 30.04 in - NNW 28.8 mph - N/A   Overcast
5:55 AM 23.0 °F 6.0 °F 21.2 °F 93% 30.05 in - North 27.6 mph 34.5 mph N/A   Overcast
6:15 AM 23.0 °F 6.3 °F 21.2 °F 93% 30.05 in - North 26.5 mph 32.2 mph N/A   Overcast
6:55 AM 21.2 °F 3.9 °F 19.4 °F 93% 30.06 in 4.0 mi North 26.5 mph 31.1 mph N/A   Clear
7:15 AM 21.2 °F 4.2 °F 19.4 °F 93% 30.07 in 4.0 mi North 25.3 mph 31.1 mph N/A   Clear
7:35 AM 21.2 °F 4.2 °F 17.6 °F 86% 30.07 in 7.0 mi North 25.3 mph 28.8 mph N/A   Clear
7:55 AM 21.2 °F 5.2 °F 17.6 °F 86% 30.09 in 10.0 mi NNW 21.9 mph 27.6 mph N/A   Clear
8:15 AM 21.2 °F 4.9 °F 17.6 °F 86% 30.10 in 7.0 mi NNW 23.0 mph 32.2 mph N/A   Clear
8:35 AM 21.2 °F 5.2 °F 17.6 °F 86% 30.11 in 10.0 mi NNW 21.9 mph - N/A   Clear
8:55 AM 23.0 °F 6.6 °F 17.6 °F 80% 30.12 in 10.0 mi NNW 25.3 mph - N/A   Clear
9:15 AM 23.0 °F 6.6 °F 17.6 °F 80% 30.12 in 10.0 mi NNW 25.3 mph 32.2 mph N/A   Clear
9:35 AM 23.0 °F 6.3 °F 17.6 °F 80% 30.13 in 7.0 mi NNW 26.5 mph 33.4 mph N/A   Clear
9:55 AM 23.0 °F 5.7 °F 17.6 °F 80% 30.13 in 5.0 mi North 28.8 mph 33.4 mph N/A   Haze
10:15 AM 24.8 °F 9.6 °F 17.6 °F 74% 30.14 in 4.0 mi NNW 23.0 mph 32.2 mph N/A   Haze
10:35 AM 26.6 °F 11.1 °F 17.6 °F 69% 30.15 in 7.0 mi NNW 26.5 mph 31.1 mph N/A   Clear
10:55 AM 26.6 °F 11.1 °F 17.6 °F 69% 30.16 in 10.0 mi NNW 26.5 mph 33.4 mph N/A   Clear
11:15 AM 26.6 °F 11.7 °F 17.6 °F 69% 30.16 in 10.0 mi NNW 24.2 mph - N/A   Clear
11:35 AM 28.4 °F 14.7 °F 17.6 °F 64% 30.17 in 10.0 mi NNW 21.9 mph - N/A   Clear
12:15 PM 28.4 °F 14.1 °F 17.6 °F 64% 30.17 in 10.0 mi North 24.2 mph - N/A   Clear
12:35 PM 28.4 °F 14.1 °F 17.6 °F 64% 30.16 in 10.0 mi North 24.2 mph 31.1 mph N/A   Clear
12:55 PM 30.2 °F 17.1 °F 17.6 °F 60% 30.16 in 10.0 mi North 21.9 mph - N/A   Clear
1:15 PM 30.2 °F 16.2 °F 19.4 °F 64% 30.16 in 10.0 mi NNW 25.3 mph 29.9 mph N/A   Clear
1:35 PM 30.2 °F 17.1 °F 19.4 °F 64% 30.16 in 10.0 mi North 21.9 mph - N/A   Clear
1:55 PM 30.2 °F 16.2 °F 19.4 °F 64% 30.16 in 10.0 mi North 25.3 mph - N/A   Clear
2:15 PM 32.0 °F 18.9 °F 19.4 °F 60% 30.15 in 10.0 mi North 24.2 mph 28.8 mph N/A   Clear
2:35 PM 32.0 °F 18.4 °F 21.2 °F 64% 30.15 in 10.0 mi North 26.5 mph 31.1 mph N/A   Clear
2:55 PM 32.0 °F 19.2 °F 21.2 °F 64% 30.14 in 10.0 mi NNW 23.0 mph 29.9 mph N/A   Clear
3:15 PM 32.0 °F 19.5 °F 21.2 °F 64% 30.15 in 10.0 mi NNW 21.9 mph 31.1 mph N/A   Clear
3:35 PM 32.0 °F 20.1 °F 21.2 °F 64% 30.14 in 10.0 mi NNW 19.6 mph 27.6 mph N/A   Clear
3:55 PM 32.0 °F 19.8 °F 23.0 °F 69% 30.14 in 10.0 mi North 20.7 mph - N/A   Clear
4:15 PM 32.0 °F 19.8 °F 21.2 °F 64% 30.14 in 10.0 mi NNW 20.7 mph 26.5 mph N/A   Clear
4:35 PM 32.0 °F 19.8 °F 23.0 °F 69% 30.13 in 10.0 mi NNW 20.7 mph - N/A   Clear
4:55 PM 32.0 °F 20.8 °F 21.2 °F 64% 30.13 in 10.0 mi NNW 17.3 mph 23.0 mph N/A   Clear
5:15 PM 33.8 °F 22.8 °F 23.0 °F 65% 30.13 in 10.0 mi NW 18.4 mph 26.5 mph N/A   Clear
5:35 PM 33.8 °F 22.8 °F 23.0 °F 65% 30.13 in 10.0 mi NNW 18.4 mph 25.3 mph N/A   Clear
5:55 PM 33.8 °F 22.8 °F 23.0 °F 65% 30.14 in 10.0 mi NNW 18.4 mph - N/A   Clear
6:15 PM 33.8 °F 23.2 °F 23.0 °F 65% 30.14 in 10.0 mi NW 17.3 mph 25.3 mph N/A   Clear
6:35 PM 33.8 °F 22.8 °F 23.0 °F 65% 30.14 in 10.0 mi NW 18.4 mph 24.2 mph N/A   Clear
6:55 PM 33.8 °F 22.8 °F 23.0 °F 65% 30.14 in 10.0 mi NNW 18.4 mph 23.0 mph N/A   Clear
7:15 PM 32.0 °F 23.0 °F 23.0 °F 69% 30.14 in 10.0 mi NNW 11.5 mph - N/A   Clear
7:35 PM 32.0 °F 24.2 °F 23.0 °F 69% 30.14 in 10.0 mi NNW 9.2 mph - N/A   Clear
7:55 PM 32.0 °F 24.2 °F 23.0 °F 69% 30.15 in 10.0 mi NW 9.2 mph - N/A   Clear
8:15 PM 30.2 °F 22.6 °F 23.0 °F 75% 30.15 in 10.0 mi NW 8.1 mph - N/A   Clear
8:35 PM 30.2 °F 22.6 °F 23.0 °F 75% 30.15 in 10.0 mi NW 8.1 mph - N/A   Clear
8:55 PM 30.2 °F 23.4 °F 23.0 °F 75% 30.15 in 10.0 mi NW 6.9 mph - N/A   Clear
9:15 PM 28.4 °F 19.7 °F 23.0 °F 80% 30.15 in 10.0 mi NW 9.2 mph - N/A   Clear
9:35 PM 28.4 °F 19.1 °F 23.0 °F 80% 30.16 in 10.0 mi NW 10.4 mph - N/A   Clear
9:55 PM 28.4 °F 21.2 °F 23.0 °F 80% 30.16 in 10.0 mi NW 6.9 mph - N/A   Clear
10:15 PM 26.6 °F 16.8 °F 21.2 °F 80% 30.18 in 10.0 mi NW 10.4 mph - N/A   Clear
10:35 PM 28.4 °F 19.1 °F 21.2 °F 74% 30.17 in 10.0 mi NW 10.4 mph - N/A   Clear
10:55 PM 28.4 °F 18.5 °F 21.2 °F 74% 30.17 in 10.0 mi NW 11.5 mph - N/A   Clear
11:15 PM 28.4 °F 18.0 °F 19.4 °F 69% 30.18 in 10.0 mi NW 12.7 mph - N/A   Clear
11:35 PM 28.4 °F 16.6 °F 21.2 °F 74% 30.18 in 10.0 mi NW 16.1 mph - N/A   Clear
11:55 PM 28.4 °F 16.2 °F 21.2 °F 74% 30.17 in 10.0 mi NW 17.3 mph - N/A   Clear